#timestamp,LO_Frequency,Hit,StdDev 
1666396815.7,286047000.0,N
1666396835.5,286047000.6,N
1666396855.4,286046998.7,N
1666396875.2,286047000.8,N
1666396895.0,286046997.7,N
1666396895.9,286046997.7,N
1666396915.8,286046995.0,N
1666396935.6,286046995.6,N
1666396955.4,286046997.2,N
1666396975.3,286046998.6,N
1666396995.1,286047001.2,N
1666397015.9,286047000.3,N
1666397035.7,286047001.9,N
1666397055.5,286047002.3,N
1666397075.4,286046999.4,N
1666397095.2,286046998.3,N
1666397115.1,286046998.8,N
1666397116.0,286046998.8,N
1666397135.8,286047001.0,N
1666397155.6,286046998.3,N
1666397175.5,286047000.3,N
1666397195.3,286046998.9,N
1666397215.1,286046998.1,N
1666397235.9,286047001.0,N
1666397255.7,286047000.9,N
1666397275.6,286047001.1,N
1666397295.4,286046996.9,N
1666397315.2,286046997.4,N
1666397335.1,286046999.2,N
1666397336.0,286046999.2,N
1666397355.8,286046997.2,N
1666397375.6,286046999.0,N
1666397395.5,286047000.9,N
1666397415.3,286047001.1,N
1666397435.2,286047001.2,N
1666397455.9,286046998.6,N
1666397475.7,286047000.6,N
1666397495.6,286047002.6,N
1666397515.4,286047000.9,N
1666397535.2,286047000.2,N
1666397555.1,286047000.3,N
1666397556.0,286047000.3,N
1666397575.8,286046998.5,N
1666397595.7,286046998.9,N
1666397615.5,286046998.7,N
1666397635.4,286046998.2,N
1666397655.2,286046998.8,N
1666397675.0,286046998.1,N
1666397675.9,286046998.1,N
1666397695.8,286046999.9,N
1666397715.6,286046998.3,N
1666397735.4,286046998.4,N
1666397755.3,286046998.3,N
1666397775.1,286046998.8,N
1666397795.9,286047001.1,N
1666397815.7,286046997.5,N
1666397835.5,286046996.6,N
1666397855.4,286046999.0,N
1666397875.2,286046999.0,N
1666397895.1,286046998.5,N
1666397896.0,286046998.5,N
1666397915.8,286047000.3,N
1666397935.6,286047000.9,N
1666397955.5,286047000.2,N
1666397975.3,286047001.7,N
1666397995.1,286047002.4,N
1666398015.9,286047000.0,N
1666398035.7,286047001.0,N
1666398055.6,286046999.8,N
1666398075.4,286047001.4,N
1666398095.2,286047002.3,N
1666398115.1,286047002.6,N
1666398116.0,286047002.6,N
1666398135.8,286047000.0,N
1666398155.7,286047001.6,N
1666398175.5,286047000.5,N
1666398195.3,286047000.7,N
1666398215.2,286046998.1,N
1666398235.0,286046998.6,N
1666398235.9,286046998.6,N
1666398255.8,286047001.2,N
1666398275.6,286047000.3,N
1666398295.4,286047000.1,N
1666398315.3,286047000.7,N
1666398335.1,286046996.9,N
1666398355.8,286046997.7,N
1666398375.7,286046996.5,N
1666398395.5,286046999.2,N
1666398415.4,286046997.1,N
1666398435.2,286046997.4,N
1666398455.0,286046998.2,N
1666398455.9,286046998.2,N
1666398475.8,286047000.5,N
1666398495.6,286047000.9,N
1666398515.4,286047000.3,N
1666398535.3,286047004.0,N
1666398555.1,286047006.0,Y
1666398575.9,286047005.1,P
1666398595.7,286047005.1,N
1666398615.5,286047004.7,N
1666398635.4,286047003.1,N
1666398655.2,286047005.2,N
1666398675.6,286047003.8,N
1666398695.5,286047001.7,N
1666398715.3,286047004.4,N
1666398735.1,286047004.8,N
1666398755.9,286047006.0,Y
1666398775.7,286046998.4,P
1666398795.5,286047000.8,N
1666398815.4,286046999.2,N
1666398835.2,286046997.4,N
1666398855.1,286046997.6,N
1666398856.0,286046997.6,N
1666398875.8,286046995.0,N
1666398895.6,286046997.5,N
1666398915.5,286046998.9,N
1666398935.3,286046998.6,N
1666398955.1,286046999.6,N
1666398975.9,286046997.4,N
1666398995.7,286046999.3,N
1666399015.6,286046999.3,N
1666399035.4,286046997.0,N
1666399055.2,286046996.5,N
1666399075.1,286046998.8,N
1666399076.0,286046998.8,N
1666399095.8,286046997.1,N
1666399115.6,286046999.2,N
1666399135.5,286046997.5,N
1666399155.3,286046996.2,N
1666399175.2,286046996.3,N
1666399195.9,286046997.4,N
1666399215.7,286046997.6,N
1666399235.6,286046997.4,N
1666399255.4,286046999.0,N
1666399275.2,286046997.0,N
1666399295.1,286046995.7,N
1666399296.0,286046995.7,N
1666399315.8,286046995.8,Y
1666399335.7,286046997.9,P
1666399355.5,286046996.7,P
1666399375.3,286046999.0,N
1666399395.2,286047000.4,N
1666399415.9,286047001.6,N
1666399435.7,286047004.3,N
1666399455.6,286047003.8,N
1666399475.4,286047000.9,N
1666399495.3,286046998.2,N
1666399515.1,286047002.1,N
1666399516.0,286047002.1,N
1666399535.8,286047002.5,N
1666399555.7,286047002.7,N
1666399575.5,286047000.2,N
1666399595.3,286047000.2,N
1666399615.2,286047002.1,N
1666399635.0,286047002.3,N
1666399635.9,286047002.3,N
1666399655.8,286047000.2,N
1666399675.6,286047002.2,N
1666399695.4,286046999.8,N
1666399715.3,286047000.0,N
1666399735.1,286046998.5,N
1666399755.8,286047000.0,N
1666399775.7,286047001.6,N
1666399795.5,286047003.8,N
1666399815.4,286047002.0,N
1666399835.2,286047002.6,N
1666399855.0,286047000.4,N
1666399855.9,286047000.4,N
1666399875.8,286047000.5,N
1666399895.6,286046996.9,N
1666399915.5,286046997.1,N
1666399935.3,286047001.0,N
1666399955.1,286047002.5,N
1666399975.9,286046998.6,N
1666399995.7,286046996.7,N
1666400015.5,286046997.1,N
1666400035.4,286046998.6,N
1666400055.2,286047001.2,N
1666400075.1,286047002.3,N
1666400076.0,286047002.3,N
1666400095.8,286047000.7,N
1666400115.6,286046998.2,N
1666400135.5,286047000.4,N
1666400155.3,286047000.7,N
1666400175.1,286047000.5,N
1666400195.9,286047001.5,N
1666400215.7,286047000.3,N
1666400235.6,286047000.2,N
1666400255.4,286047000.4,N
1666400275.2,286046999.5,N
1666400295.1,286046998.8,N
1666400296.0,286046998.8,N
1666400315.8,286046999.4,N
1666400335.7,286046999.4,N
1666400355.5,286046998.4,N
1666400375.3,286047000.3,N
1666400395.2,286046999.7,N
